SHILOH Weather Reports


time (UTC)temp
C
wind
direction
speed
KPH
gust
KPH
rain 1hr
cm
rain 24hr
cm
rain mn
cm
humidity
%
barometer
mb
20260505171546 27 297 4.8 12.9 0.00 0.00 0.00 39 1008.0
20260505170041 27 259 3.2 12.9 0.00 0.00 0.00 44 1008.3
20260505164554 27 11 4.8 12.9 0.00 0.00 0.00 41 1008.6
20260505163039 27 329 4.8 11.3 0.00 0.00 0.00 43 1008.9
20260505161548 26 316 1.6 12.9 0.00 0.00 0.00 43 1008.9
20260505153031 25 297 6.4 12.9 0.00 0.00 0.00 45 1009.0
20260505151530 25 83 3.2 12.9 0.00 0.00 0.00 46 1009.0
20260505124611 20 290 1.6 8.0 0.00 0.00 0.00 62 1010.2
20260505123058 18 214 4.8 11.3 0.00 0.00 0.00 63 1010.2
20260505121551 18 262 4.8 9.7 0.00 0.00 0.00 65 1010.2
20260505120101 17 284 1.6 6.4 0.00 0.00 0.00 70 1010.2
20260505114548 15 274 0.0 0.0 0.00 0.00 0.00 77 1009.9
20260505113103 15 274 0.0 1.6 0.00 0.00 0.00 75 1009.7
20260505111544 15 274 0.0 0.0 0.00 0.00 0.00 73 1009.5
20260505101537 15 267 1.6 4.8 0.00 0.00 0.00 71 1009.0
20260505100036 15 269 3.2 6.4 0.00 0.00 0.00 71 1008.9
20260505094535 15 245 1.6 4.8 0.00 0.00 0.00 73 1008.9
20260505093032 15 260 0.0 1.6 0.00 0.00 0.00 71 1008.9
20260505091530 16 260 0.0 0.0 0.00 0.00 0.00 68 1008.7
20260505090026 16 262 1.6 6.4 0.00 0.00 0.00 66 1008.6
20260505084541 16 274 1.6 4.8 0.00 0.00 0.00 66 1008.5
20260505083025 16 264 1.6 3.2 0.00 0.00 0.00 67 1008.5
20260505081524 16 276 0.0 3.2 0.00 0.00 0.00 67 1008.5
20260505080027 16 245 1.6 3.2 0.00 0.00 0.00 67 1008.5
20260505074523 16 258 1.6 4.8 0.00 0.00 0.00 67 1008.5
20260505073022 17 274 1.6 6.4 0.00 0.00 0.00 65 1008.4
20260505071521 17 260 1.6 4.8 0.00 0.00 0.00 64 1008.2
20260505070020 17 259 1.6 6.4 0.00 0.00 0.00 64 1008.3
20260505064520 17 249 1.6 3.2 0.00 0.00 0.00 64 1008.4
20260505063023 17 253 0.0 4.8 0.00 0.00 0.00 62 1008.6
20260505061520 18 228 1.6 3.2 0.00 0.00 0.00 62 1008.7
20260505060016 18 278 3.2 6.4 0.00 0.00 0.00 61 1008.6
20260505054515 18 266 1.6 4.8 0.00 0.00 0.00 60 1008.6
20260505053118 18 279 3.2 6.4 0.00 0.00 0.00 60 1008.6
20260505051517 18 267 1.6 6.4 0.00 0.00 0.00 61 1008.6
20260505041504 17 270 1.6 4.8 0.00 0.00 0.00 62 1008.4
20260505040059 16 246 0.0 3.2 0.00 0.00 0.00 67 1008.4
20260505034617 14 269 0.0 0.0 0.00 0.00 0.00 71 1008.4
20260505034501 14 269 0.0 0.0 0.00 0.00 0.00 71 1008.4
20260505033058 14 269 0.0 1.6 0.00 0.00 0.00 71 1008.4
20260505031558 14 269 0.0 0.0 0.00 0.00 0.00 67 1008.3
20260505030057 15 270 0.0 0.0 0.00 0.00 0.00 63 1008.3
20260505024556 16 273 0.0 0.0 0.00 0.00 0.00 61 1008.1
20260505023100 16 273 0.0 1.6 0.00 0.00 0.00 60 1008.4
20260505021555 16 274 0.0 4.8 0.00 0.00 0.00 59 1008.4
20260505020058 17 264 1.6 4.8 0.00 0.00 0.00 58 1008.3
20260505014554 17 248 0.0 0.0 0.00 0.00 0.00 57 1008.1
20260505013053 17 259 0.0 3.2 0.00 0.00 0.00 54 1008.1
20260505011608 18 255 0.0 1.6 0.00 0.00 0.00 52 1008.2
20260505010052 18 257 0.0 4.8 0.00 0.00 0.00 50 1007.9
20260505004557 18 280 1.6 6.4 0.00 0.00 0.00 49 1007.7
20260505003056 19 274 0.0 4.8 0.00 0.00 0.00 48 1007.6
20260505001604 20 270 0.0 6.4 0.00 0.00 0.00 46 1007.6
20260505000105 21 266 1.6 6.4 0.00 0.00 0.00 44 1007.5
20260504234552 21 283 3.2 8.0 0.00 0.00 0.00 43 1007.4
20260504233103 22 278 3.2 11.3 0.00 0.00 0.00 43 1007.4
20260504231547 22 281 1.6 11.3 0.00 0.00 0.00 42 1007.5
20260504230046 22 266 4.8 12.9 0.00 0.00 0.00 40 1007.5
20260504224544 22 263 4.8 8.0 0.00 0.00 0.00 40 1007.6
20260504223043 23 259 3.2 12.9 0.00 0.00 0.00 42 1007.6
20260504221544 23 291 3.2 12.9 0.00 0.00 0.00 42 1007.7
20260504220041 23 277 3.2 9.7 0.00 0.00 0.00 40 1007.8
20260504214542 23 257 3.2 12.9 0.00 0.00 0.00 41 1007.8
20260504213040 23 239 4.8 9.7 0.00 0.00 0.00 40 1007.8
20260504211538 23 283 4.8 19.3 0.00 0.00 0.00 40 1007.8
20260504210038 23 288 8.0 19.3 0.00 0.00 0.00 40 1007.8
20260504204535 23 269 1.6 11.3 0.00 0.00 0.00 42 1007.8
20260504203034 23 314 1.6 16.1 0.00 0.00 0.00 40 1007.8
20260504201530 23 280 3.2 12.9 0.00 0.00 0.00 38 1008.2
20260504200029 23 300 3.2 14.5 0.00 0.00 0.00 40 1008.5
20260504194531 23 281 3.2 16.1 0.00 0.00 0.00 39 1008.6
20260504193025 23 281 6.4 16.1 0.00 0.00 0.00 40 1008.9
20260504191522 22 307 4.8 12.9 0.00 0.00 0.00 39 1009.2
20260504190024 22 314 4.8 9.7 0.00 0.00 0.00 40 1009.4
20260504184516 22 291 4.8 16.1 0.00 0.00 0.00 41 1009.8
20260504183013 22 298 3.2 12.9 0.00 0.00 0.00 41 1010.0
20260504181512 22 250 3.2 14.5 0.00 0.00 0.00 43 1010.1
20260504180010 22 287 6.4 12.9 0.00 0.00 0.00 39 1010.3
20260504174510 21 274 4.8 16.1 0.00 0.00 0.00 41 1010.4
20260504173007 22 269 3.2 11.3 0.00 0.00 0.00 42 1010.7